星链-3854 (STARLINK-3854 )

导读

STARLINK-3854是美国SpaceX公司星链(Starlink)星座中的V1.5版本卫星,于2022年5月14日发射入轨。星链计划旨在构建全球低轨宽带互联网,该卫星采用平板设计,搭载Ku/Ka波段相控阵通信载荷,配备氪工质霍尔推进器,具备自主轨道维持和避碰能力,设计寿命约5年,运行在低地球轨道,为全球用户提供高速低延迟的卫星互联网服务,寿命末期将主动离轨再入大气层焚毁。

基本信息
目录编号:
52648
目录名称:
STARLINK-3854
国际标识:
2022-052BC
轨道中心:
EARTH
卫星名称:
星链-3854
卫星全名:
星链-3854 (STARLINK-3854 )
卫星状态:
在轨 (已飞行1574 天)
发射日期:
2022-05-14 UTC
国别 :
美国 (US)
星等 :
--
轨道信息
数据来源 国际轨道数据
星历时间: 2026-09-03T12:33:40+0800
1天前
查看轨道信息
半长轴: 6843.384km
偏心率: 0.0001328
轨道倾角: 53.160°
近地点辐角 102.014°
升交点赤经 172.752°
平近点角 258.101°
近地点: 464.338km
远地点: 466.156km
周期: 93.900分钟
每日圈数: 15.335448
详细信息
固有亮度:
5
最大亮度:
2.5
卫星平台:
Starlink v1.5
覆盖范围:
全球
运营商:
太空探索技术公司
运营商所在国:
美国
制造商(研发单位):
太空探索技术公司
制造商所在国:
美国
使用方式:
暂无
卫星简介
星链(Starlink)计划是由太空探索技术公司(SpaceX)提出的一个巨型低轨卫星互联网星座项目,计划在2019年至2024年间在太空搭建由约1.2万颗卫星组成的“星链”网络,其中1584颗将部署在地球上空550千米处的近地轨道,并从2020年开始工作。该卫星仍在工作。
2D轨道图
3D轨道图
轨道高度分析图
轨道倾角分析图
轨道综合分析图
查看轨道综合分析图